Terug naar catalogus

ION SCV-018

ActiefWetenschapSSO
NORAD 64575·PAYLOAD·🇮🇹 Italy

Gelanceerd Jun 23, 2025 vanaf Vandenberg Space Force Base

Loading…

Volgende Passages (komende 24 uur)

TLE

VersSource: Space-Track

Epoch: Sep 14, 2026, 06:09 UTC

1 64575U 25135AZ  26257.25629593  .00000790  00000-0  77940-4 0  9993
2 64575  97.7854  11.5860 0012475   2.6644 357.4641 14.94780998 67238

Volg ION SCV-018 in realtime met AllMySat

Download on the App Store